Wind_Speed
8 5 14 19 4 4 5 8 5 9 15 12 15 14 14 15 16 14 16 13 10 9 9 12 12 13 11 10 6 2 10 7 7 7 8 7 6 7 6 6 4 3 0 2 2 3 5 6 5
6 5 9 12 6 7 7 8 10 8 9 12 7 7 13 15 13 12 13 11 10 7 9 10 9 8 8 7 6 3 4 10 3 9 7 7 7 10 8 6 3 1 1 2 3 5 6 6 4
7 7 10 6 8 10 3 13 11 8 12 12 9 2 7 11 10 11 11 11 9 7 6 7 7 6 4 7 6 5 4 3 5 6 1 2 9 9 4 6 2 1 1 3 3 6 6 5 3
1 3 4 4 5 6 6 9 9 13 17 12 8 7 10 9 10 11 11 10 7 6 5 5 5 7 10 10 7 4 4 7 10 8 5 4 6 5 6 7 3 1 1 3 3 6 6 5 3
2 3 10 9 8 8 6 9 10 11 14 11 7 4 4 9 8 9 8 8 7 6 5 4 3 4 8 8 6 3 2 6 8 7 7 7 3 10 5 4 3 2 0 2 4 5 6 6 5
3 3 7 8 8 6 7 7 10 7 10 6 11 10 5 1 11 7 6 6 7 6 4 3 1 2 4 5 5 2 1 6 8 8 8 8 3 10 4 5 2 2 1 0 2 3 5 4 2
9 3 8 1 8 9 6 4 10 11 12 14 9 8 7 8 10 6 5 4 6 4 3 3 2 2 3 4 4 3 3 5 6 9 11 5 10 9 5 6 3 2 2 2 1 2 3 1 2
16 6 3 4 1 7 5 5 6 8 10 18 5 13 9 5 3 5 6 3 4 4 2 2 1 1 3 5 5 5 3 2 4 9 8 17 12 7 5 4 3 2 3 3 1 2 3 3 6
8 6 7 2 3 3 6 7 11 9 7 7 12 10 15 11 4 1 4 7 4 4 3 2 2 2 2 3 5 6 3 1 3 6 5 10 5 6 5 6 3 2 3 2 2 2 4 5 9
4 5 8 7 8 9 9 9 7 11 12 13 12 11 11 12 8 4 3 4 5 4 1 3 4 3 4 4 5 6 4 2 1 5 3 5 5 6 5 5 3 3 4 2 3 4 6 6 11
3 6 6 5 10 11 10 9 9 10 12 12 10 13 11 10 3 3 4 4 4 6 4 4 5 6 5 4 6 6 5 3 2 1 5 8 4 4 6 6 5 5 8 5 7 8 5 7 11
6 6 4 9 9 14 15 14 13 10 14 13 13 10 10 7 3 1 2 2 2 4 5 4 5 6 4 5 5 7 7 7 6 4 2 2 1 1 7 6 5 7 9 6 8 7 5 7 5
4 7 1 7 12 17 14 15 13 12 14 12 10 8 7 6 4 6 8 2 3 6 5 5 5 7 7 5 5 6 8 7 7 9 5 4 2 5 5 6 6 7 8 7 7 6 8 9 12
9 2 3 8 15 18 19 18 14 13 14 9 5 5 4 5 4 2 10 5 3 6 3 3 3 6 5 7 6 9 12 8 11 10 8 5 5 7 5 4 7 6 5 7 7 8 8 8 7
8 4 5 11 15 14 16 17 15 11 13 14 10 8 7 6 7 5 3 6 5 6 2 2 4 3 5 9 6 10 9 2 11 11 9 5 4 6 7 5 7 8 9 9 9 8 7 9 7
7 8 13 8 13 17 18 17 15 13 17 19 17 11 10 13 13 8 7 5 5 2 3 4 4 4 5 8 6 9 5 6 7 13 10 7 5 4 3 9 7 11 10 9 8 8 7 8 9
1 3 11 10 14 15 15 14 14 14 21 21 24 15 10 10 9 9 8 7 5 6 4 5 7 8 5 4 4 8 7 9 11 14 9 6 4 7 5 7 4 10 12 15 10 7 7 7 6
2 8 13 14 14 18 12 8 12 13 20 23 26 23 15 15 13 9 10 7 8 8 7 4 5 8 6 7 6 6 5 1 11 10 10 9 7 8 9 6 9 11 11 9 5 9 9 9 9
5 9 8 11 15 19 9 3 1 1 11 13 17 22 17 16 14 11 10 8 9 10 10 6 10 9 7 6 5 4 4 3 7 9 11 11 9 12 11 9 10 13 13 12 13 11 10 9 9
10 8 8 6 6 15 9 4 3 2 5 11 10 11 22 11 14 14 13 7 7 8 8 7 8 9 8 4 5 5 5 5 6 9 12 15 13 12 10 10 13 14 13 13 13 11 10 10 9
6 6 9 9 4 6 8 5 3 1 5 11 16 16 20 19 9 12 13 12 8 7 9 7 7 9 6 6 5 6 5 7 10 11 10 13 15 15 15 12 14 15 14 15 15 16 14 9 10
4 10 5 4 8 5 7 10 8 9 9 12 13 16 21 23 11 8 10 13 11 7 5 8 5 7 7 6 6 6 6 7 8 11 11 12 17 22 24 20 16 17 15 16 15 19 22 16 15
7 5 2 3 9 6 6 13 6 6 3 10 12 18 25 19 14 8 9 11 12 10 7 5 4 4 8 7 7 7 8 9 9 11 13 16 17 21 18 18 18 21 16 11 15 14 18 16 19
4 2 8 6 3 10 14 7 12 9 5 10 15 19 23 20 8 13 10 10 8 8 9 5 4 4 7 8 10 10 10 12 13 13 15 14 15 20 16 15 20 21 16 9 12 15 15 12 11
7 5 9 9 7 4 7 16 17 7 4 5 18 22 25 15 5 7 14 8 7 5 7 8 5 5 6 7 8 8 10 11 13 15 14 20 20 23 18 16 15 17 16 12 12 12 14 10 13
11 6 8 16 8 4 5 16 17 11 8 13 20 23 17 19 18 17 19 12 5 3 7 7 6 6 6 8 9 9 11 11 12 13 15 15 22 22 20 17 16 17 18 11 17 14 15 14 13
3 3 6 12 11 8 8 10 11 10 17 20 23 28 32 27 20 26 22 16 9 3 6 9 9 8 6 7 8 7 10 11 10 10 10 10 25 25 18 16 15 18 18 16 15 12 11 12 11
14 11 11 13 18 16 14 20 8 14 23 24 24 30 30 30 29 35 27 16 15 8 5 2 6 8 10 10 9 10 9 11 12 11 12 9 27 26 19 19 15 16 18 17 14 15 12 11 10
23 24 20 17 15 20 23 23 23 23 23 21 19 21 27 30 34 34 29 23 32 11 12 5 2 4 7 10 11 12 12 11 10 13 11 15 33 24 21 20 18 17 16 14 15 16 15 12 13
33 33 29 27 25 25 24 24 30 32 29 32 32 32 39 30 34 26 28 36 24 16 13 6 2 2 8 10 12 11 10 10 8 8 6 16 20 21 26 22 20 21 21 17 16 16 14 14 14
Wind_Direction
90 59 65 39 133 118 32 25 322 353 12 13 15 26 19 24 24 22 25 19 20 32 37 46 58 71 77 77 115 112 177 190 191 201 202 182 194 183 182 211 227 244 102 280 297 307 296 272 250
84 40 30 9 27 58 60 11 4 31 30 61 43 26 21 16 13 23 25 16 16 26 40 39 55 58 76 89 86 68 212 205 230 209 198 227 225 199 199 207 233 201 248 294 324 320 297 290 280
112 76 57 20 81 63 108 15 61 326 16 21 42 44 6 356 9 24 23 22 8 20 45 32 44 53 98 124 99 45 110 121 67 155 240 201 246 273 188 211 224 319 316 333 339 312 295 304 312
130 349 330 347 44 45 21 356 325 324 344 7 46 29 353 348 21 26 17 18 13 15 23 21 45 80 128 131 117 80 25 49 35 23 54 358 280 210 203 208 187 147 358 322 310 298 305 300 315
145 85 82 59 25 44 64 336 305 310 320 330 50 41 22 311 25 13 11 20 15 12 358 7 57 94 138 150 143 131 58 21 7 355 350 350 286 184 219 186 160 146 42 299 311 303 300 302 324
223 10 304 345 341 343 291 336 328 321 334 315 345 351 32 123 0 12 350 22 20 2 353 338 25 137 153 166 174 164 350 340 339 337 332 282 211 182 178 148 174 145 197 60 337 292 278 303 318
240 90 46 20 356 356 13 5 317 349 0 353 347 4 34 141 352 308 345 356 22 4 352 324 298 188 205 200 219 230 297 327 332 334 333 263 154 171 153 149 171 191 155 109 327 265 265 264 74
44 342 219 26 298 2 5 3 336 6 12 19 346 9 14 255 82 268 305 358 21 360 349 296 263 207 223 217 218 246 266 326 349 347 355 143 138 135 140 160 164 200 133 153 194 239 209 123 105
60 35 1 347 22 4 327 318 335 339 337 360 39 60 38 40 30 264 311 329 18 343 351 271 234 215 240 223 225 245 250 301 4 14 98 107 110 130 160 164 139 129 163 140 185 154 120 115 119
31 352 333 356 346 347 329 322 326 325 0 24 13 8 18 33 52 14 332 338 31 7 349 252 250 236 225 218 218 234 229 198 352 5 160 134 164 155 145 152 139 129 144 160 130 122 121 119 108
359 19 36 16 7 2 346 338 337 356 340 358 358 6 21 29 3 23 19 1 357 12 341 259 248 242 240 217 205 213 218 215 185 324 157 158 169 210 145 150 160 158 155 161 135 119 146 113 118
34 63 36 53 48 34 4 356 355 349 7 347 346 4 1 342 341 337 289 156 252 333 327 287 249 255 216 257 219 226 226 220 195 202 150 101 220 221 157 144 159 162 141 138 138 119 117 119 129
74 76 107 58 56 42 12 353 345 18 6 349 343 357 352 345 12 329 278 44 165 262 294 321 311 238 255 233 235 252 246 231 214 197 179 243 246 201 177 196 186 138 133 146 128 128 121 116 119
79 96 97 64 48 29 13 359 1 1 13 358 34 13 29 35 8 19 345 348 296 240 234 259 260 262 259 262 254 265 271 204 204 211 180 232 230 202 199 120 169 153 142 138 119 115 123 121 129
73 82 47 17 32 29 19 4 5 21 18 43 27 21 26 49 49 15 27 354 310 288 276 237 251 266 270 252 257 263 296 295 201 204 190 205 227 211 205 186 170 156 176 156 122 129 119 123 126
78 24 1 338 20 7 13 0 17 27 45 44 42 20 22 38 25 35 24 1 329 276 262 288 293 278 237 252 246 266 291 286 222 201 196 187 207 217 192 208 164 186 172 147 136 137 141 147 138
14 27 39 358 352 357 8 2 356 48 36 36 28 35 35 8 8 6 344 353 329 330 284 257 280 273 261 253 233 239 261 265 211 196 187 215 232 218 187 200 183 196 193 146 129 143 145 135 134
2 340 309 306 332 333 341 17 18 23 36 20 15 22 33 40 35 21 350 351 2 350 331 279 279 285 283 261 237 249 262 294 201 195 185 220 241 237 200 207 207 208 198 187 214 169 163 158 148
327 301 296 294 294 286 301 300 54 307 10 13 23 44 25 27 29 24 6 19 19 358 344 308 277 283 273 234 241 248 245 194 201 208 202 218 228 248 213 206 196 195 198 183 176 175 172 166 166
253 298 275 264 259 274 305 330 313 23 15 17 27 357 14 17 20 19 19 9 9 353 345 328 301 285 298 284 233 242 227 215 216 223 228 220 226 219 223 200 189 183 194 191 185 183 175 182 163
273 265 257 271 255 332 299 218 214 230 33 27 16 355 358 19 9 8 10 15 3 350 346 332 304 288 297 291 239 233 232 229 223 235 253 243 243 244 212 211 203 192 197 193 192 180 177 189 180
254 273 328 5 15 314 291 235 260 279 356 14 354 340 1 360 350 345 351 3 355 351 349 345 311 285 294 295 280 268 251 249 239 242 250 245 250 237 218 243 216 199 202 204 203 187 185 197 189
318 290 115 159 60 52 294 304 328 274 337 326 343 339 348 354 334 327 329 339 343 334 328 351 329 294 298 309 306 301 283 271 261 258 269 265 249 228 222 200 200 194 197 222 212 213 192 197 200
352 326 188 179 66 75 21 296 327 320 284 292 320 322 321 330 326 334 320 332 330 324 319 329 316 302 287 290 310 311 294 290 289 278 275 277 227 190 187 195 199 201 211 227 219 211 187 189 182
315 256 225 195 199 101 358 322 323 301 249 309 293 298 316 318 29 15 351 317 322 335 332 340 319 278 277 292 302 303 287 287 292 295 297 302 201 176 183 188 196 196 201 206 188 183 194 193 189
4 347 224 218 232 230 308 312 302 264 248 248 271 298 307 310 296 292 317 290 294 337 10 353 351 310 293 300 285 290 306 307 297 291 304 291 183 187 192 200 196 201 192 178 169 180 198 213 206
360 327 263 249 257 250 291 254 283 283 276 251 282 302 316 306 288 294 293 342 190 170 13 342 354 336 333 314 309 297 304 316 307 312 304 280 187 177 184 186 191 182 186 187 183 181 194 204 209
251 253 227 241 254 238 254 263 254 270 286 301 304 301 311 311 299 306 282 339 298 211 195 24 337 345 349 343 330 320 316 315 319 310 295 266 203 187 181 188 194 190 190 194 189 190 196 200 217
274 274 258 247 242 251 243 262 270 282 293 287 277 256 288 301 284 284 287 304 322 224 193 150 339 344 352 344 341 330 316 310 313 313 331 166 190 183 193 197 198 190 187 191 195 199 198 204 214
261 265 260 254 254 261 249 254 250 257 262 266 279 263 272 276 293 283 286 300 306 336 184 179 230 355 358 353 345 338 311 302 301 302 295 195 194 204 202 193 191 194 188 196 203 214 202 206 224
Height
5921 5919 5918 5914 5920 5916 5915 5915 5912 5912 5914 5912 5909 5910 5910 5907 5905 5906 5902 5902 5903 5903 5903 5901 5901 5900 5899 5900 5902 5903 5904 5904 5905 5905 5904 5905 5906 5906 5905 5906 5906 5906 5904 5903 5902 5900 5900 5901 5899
5920 5919 5918 5917 5918 5916 5919 5916 5915 5915 5917 5915 5913 5911 5910 5908 5906 5904 5903 5904 5903 5903 5903 5902 5902 5902 5901 5901 5903 5904 5904 5905 5905 5905 5906 5906 5906 5905 5905 5905 5905 5904 5904 5904 5903 5901 5900 5901 5899
5919 5919 5920 5920 5920 5918 5918 5916 5915 5913 5913 5916 5916 5914 5911 5910 5908 5905 5904 5903 5904 5905 5904 5904 5904 5903 5903 5904 5904 5905 5905 5906 5906 5906 5906 5906 5906 5904 5905 5904 5904 5904 5903 5903 5902 5901 5899 5899 5899
5916 5916 5920 5919 5919 5920 5918 5916 5914 5912 5911 5916 5919 5917 5911 5909 5908 5906 5905 5904 5903 5904 5904 5904 5905 5904 5904 5905 5906 5907 5907 5907 5906 5906 5906 5906 5904 5903 5903 5903 5904 5903 5903 5903 5901 5900 5900 5899 5899
5917 5920 5915 5916 5918 5918 5913 5917 5914 5912 5911 5914 5913 5917 5913 5907 5906 5905 5905 5906 5903 5903 5904 5905 5905 5906 5906 5906 5907 5908 5908 5908 5908 5908 5907 5904 5903 5902 5903 5904 5904 5903 5903 5902 5902 5900 5900 5900 5899
5917 5920 5917 5916 5916 5916 5915 5915 5912 5912 5913 5912 5911 5914 5914 5910 5905 5905 5906 5905 5903 5903 5904 5904 5905 5906 5907 5907 5907 5907 5907 5907 5907 5906 5904 5903 5902 5903 5903 5905 5905 5904 5903 5903 5902 5901 5901 5900 5899
5915 5917 5919 5917 5917 5915 5914 5914 5908 5910 5911 5909 5910 5911 5912 5911 5909 5902 5904 5905 5904 5904 5903 5904 5905 5906 5907 5907 5907 5907 5907 5907 5907 5906 5903 5900 5901 5903 5905 5905 5905 5905 5903 5903 5902 5902 5902 5901 5900
5915 5917 5918 5918 5916 5916 5914 5911 5910 5909 5910 5910 5911 5910 5905 5906 5908 5904 5900 5902 5903 5903 5903 5904 5905 5906 5907 5907 5906 5906 5906 5907 5907 5906 5903 5901 5902 5904 5905 5906 5906 5905 5905 5903 5903 5903 5903 5903 5901
5917 5920 5917 5916 5916 5916 5914 5912 5911 5913 5912 5912 5910 5909 5905 5904 5904 5904 5901 5901 5901 5903 5903 5904 5903 5904 5905 5906 5905 5905 5905 5906 5906 5906 5904 5904 5905 5905 5906 5906 5906 5905 5906 5906 5905 5904 5904 5903 5903
5916 5918 5918 5917 5916 5916 5914 5912 5910 5910 5909 5907 5908 5907 5905 5903 5902 5905 5901 5900 5902 5902 5901 5902 5902 5903 5903 5904 5904 5904 5904 5905 5906 5905 5905 5905 5905 5905 5905 5906 5906 5906 5907 5907 5907 5905 5904 5904 5903
5917 5917 5917 5916 5917 5915 5914 5913 5911 5912 5911 5907 5907 5902 5904 5903 5903 5905 5903 5900 5900 5899 5900 5900 5901 5902 5902 5903 5903 5902 5903 5905 5905 5904 5905 5904 5905 5904 5905 5906 5906 5906 5906 5906 5906 5904 5904 5906 5904
5916 5917 5917 5916 5917 5916 5912 5911 5911 5911 5909 5907 5906 5904 5903 5904 5905 5905 5904 5901 5901 5898 5897 5899 5901 5901 5902 5902 5901 5901 5902 5904 5904 5904 5904 5904 5904 5904 5905 5906 5906 5906 5906 5906 5908 5905 5904 5905 5905
5916 5916 5916 5915 5916 5915 5915 5913 5910 5911 5911 5907 5906 5906 5905 5905 5903 5903 5900 5899 5901 5900 5899 5898 5899 5899 5901 5901 5899 5900 5901 5902 5904 5903 5903 5904 5904 5905 5906 5906 5906 5907 5907 5907 5908 5906 5906 5905 5906
5916 5917 5916 5915 5915 5915 5914 5914 5912 5911 5911 5908 5908 5906 5907 5905 5904 5901 5898 5898 5897 5899 5897 5897 5898 5898 5898 5898 5897 5897 5897 5898 5900 5902 5902 5903 5904 5905 5905 5905 5906 5907 5907 5908 5907 5907 5908 5908 5908
5915 5916 5916 5915 5915 5917 5916 5915 5912 5910 5911 5910 5907 5906 5906 5906 5904 5902 5899 5897 5898 5898 5896 5897 5896 5896 5896 5895 5896 5895 5894 5896 5896 5899 5900 5902 5902 5903 5905 5905 5905 5906 5907 5907 5907 5908 5910 5910 5910
5918 5917 5915 5916 5914 5915 5915 5914 5913 5908 5908 5908 5908 5905 5904 5904 5904 5901 5899 5899 5898 5895 5894 5896 5895 5894 5895 5893 5894 5895 5894 5893 5894 5896 5898 5900 5901 5901 5902 5905 5906 5905 5906 5906 5908 5910 5910 5911 5911
5917 5917 5915 5916 5915 5914 5916 5914 5913 5910 5906 5905 5907 5907 5904 5902 5901 5901 5900 5897 5896 5896 5894 5892 5893 5892 5892 5891 5891 5893 5894 5893 5893 5893 5895 5897 5899 5902 5904 5904 5906 5905 5906 5907 5909 5910 5911 5912 5912
5914 5915 5916 5917 5915 5913 5915 5915 5913 5909 5908 5906 5905 5905 5903 5902 5900 5898 5899 5897 5895 5893 5891 5891 5891 5890 5891 5891 5890 5892 5892 5891 5891 5892 5894 5896 5898 5900 5903 5904 5904 5905 5905 5906 5908 5910 5910 5912 5913
5913 5914 5915 5916 5917 5915 5914 5913 5911 5911 5909 5907 5906 5907 5905 5903 5902 5900 5899 5897 5894 5892 5891 5890 5889 5888 5891 5892 5890 5890 5890 5890 5890 5892 5893 5894 5897 5899 5901 5902 5902 5905 5905 5906 5907 5908 5910 5911 5914
5913 5914 5914 5913 5914 5912 5911 5911 5911 5909 5908 5906 5904 5906 5907 5904 5903 5901 5899 5897 5894 5891 5890 5889 5889 5888 5887 5888 5888 5888 5888 5890 5890 5892 5892 5894 5896 5897 5900 5901 5902 5904 5906 5907 5907 5908 5909 5910 5912
5912 5912 5913 5912 5912 5910 5908 5908 5908 5907 5904 5903 5902 5904 5905 5903 5902 5901 5899 5897 5894 5891 5890 5889 5888 5888 5886 5886 5885 5886 5886 5889 5890 5890 5891 5893 5893 5895 5897 5900 5901 5902 5904 5906 5907 5907 5908 5910 5911
5911 5911 5911 5912 5911 5909 5908 5907 5906 5905 5901 5900 5902 5903 5901 5900 5899 5900 5899 5896 5893 5890 5889 5887 5887 5886 5885 5885 5886 5886 5886 5888 5889 5888 5889 5890 5890 5892 5894 5897 5898 5900 5902 5903 5905 5906 5907 5908 5909
5910 5910 5911 5910 5910 5910 5908 5905 5904 5901 5901 5902 5901 5899 5898 5899 5898 5898 5897 5895 5893 5891 5889 5888 5886 5885 5885 5884 5885 5885 5886 5885 5885 5885 5885 5884 5884 5886 5888 5893 5894 5896 5899 5902 5903 5903 5904 5905 5906
5907 5908 5908 5908 5907 5907 5906 5904 5903 5901 5899 5899 5899 5897 5899 5899 5897 5895 5894 5893 5893 5891 5889 5888 5886 5885 5884 5883 5883 5882 5882 5882 5882 5883 5882 5880 5881 5883 5887 5889 5892 5894 5897 5899 5899 5900 5902 5903 5905
5906 5906 5906 5906 5904 5904 5904 5902 5902 5897 5897 5897 5897 5896 5894 5894 5896 5894 5894 5894 5893 5890 5889 5888 5887 5884 5883 5883 5883 5882 5880 5880 5880 5879 5879 5878 5878 5881 5884 5888 5891 5893 5895 5896 5896 5898 5900 5902 5903
5903 5902 5903 5902 5902 5902 5902 5901 5898 5897 5896 5894 5893 5890 5890 5892 5892 5891 5889 5890 5893 5890 5888 5887 5886 5883 5881 5881 5880 5878 5877 5878 5879 5878 5877 5874 5875 5879 5884 5887 5890 5890 5893 5893 5894 5896 5898 5900 5903
5903 5901 5900 5900 5900 5900 5900 5899 5896 5890 5892 5891 5890 5888 5886 5888 5887 5886 5880 5877 5885 5883 5884 5885 5883 5883 5880 5878 5877 5875 5876 5875 5875 5875 5874 5874 5876 5880 5883 5886 5888 5889 5892 5892 5893 5895 5898 5900 5903
5897 5897 5897 5895 5895 5896 5896 5891 5892 5891 5889 5889 5888 5885 5885 5885 5882 5881 5873 5868 5886 5881 5879 5880 5882 5882 5879 5877 5874 5874 5873 5872 5871 5872 5871 5870 5876 5877 5879 5883 5886 5887 5889 5891 5892 5893 5895 5898 5900
5895 5892 5892 5891 5891 5891 5890 5889 5888 5885 5886 5888 5888 5884 5878 5877 5878 5875 5878 5881 5883 5875 5873 5873 5877 5878 5876 5876 5873 5872 5872 5870 5870 5869 5867 5865 5871 5875 5878 5880 5883 5885 5887 5890 5891 5893 5893 5895 5896
5889 5888 5886 5885 5886 5885 5883 5881 5881 5881 5882 5882 5883 5883 5874 5869 5870 5871 5875 5874 5877 5866 5853 5870 5872 5874 5873 5872 5872 5871 5872 5870 5869 5868 5868 5868 5869 5873 5876 5879 5880 5884 5884 5886 5889 5892 5893 5893 5893